| time (UTC) | temp F | wind direction | speed knots | gust knots | rain 1hr in | rain 24hr in | rain mn in | humidity % | barometer mb |
| 20260507094311 | 36 | 126 | 0.9 | 0.9 | 0.00 | 0.02 | 0.02 | 90 | 1012.6 |
| 20260507093808 | 35 | 91 | 1.7 | 2.6 | 0.00 | 0.02 | 0.02 | 89 | 1012.5 |
| 20260507093307 | 36 | 112 | 0.9 | 0.9 | 0.00 | 0.02 | 0.02 | 89 | 1012.8 |
| 20260507092804 | 36 | 86 | 1.7 | 1.7 | 0.00 | 0.02 | 0.02 | 89 | 1012.7 |
| 20260507092300 | 36 | 128 | 0.9 | 0.9 | 0.00 | 0.02 | 0.02 | 89 | 1012.5 |
| 20260507091757 | 36 | 126 | 0.9 | 0.9 | 0.00 | 0.02 | 0.02 | 88 | 1012.7 |
| 20260507091253 | 37 | 80 | 0.9 | 1.7 | 0.00 | 0.02 | 0.02 | 88 | 1012.7 |
| 20260507090748 | 37 | 111 | 1.7 | 1.7 | 0.00 | 0.02 | 0.02 | 88 | 1012.6 |
| 20260507090245 | 37 | 133 | 0.9 | 0.9 | 0.00 | 0.02 | 0.02 | 87 | 1012.7 |
| 20260507085742 | 37 | 101 | 1.7 | 1.7 | 0.00 | 0.02 | 0.02 | 87 | 1012.6 |
| 20260507085239 | 38 | 138 | 0.0 | 0.9 | 0.00 | 0.02 | 0.02 | 87 | 1012.5 |
| 20260507084736 | 38 | 114 | 0.9 | 0.9 | 0.00 | 0.02 | 0.02 | 87 | 1012.6 |
| 20260507084232 | 38 | 94 | 1.7 | 1.7 | 0.00 | 0.02 | 0.02 | 87 | 1012.6 |
| 20260507083730 | 38 | 52 | 2.6 | 2.6 | 0.00 | 0.02 | 0.02 | 87 | 1012.8 |
| 20260507083226 | 39 | 49 | 2.6 | 4.3 | 0.00 | 0.02 | 0.02 | 86 | 1012.5 |
| 20260507082722 | 39 | 49 | 2.6 | 2.6 | 0.00 | 0.02 | 0.02 | 86 | 1012.4 |
| 20260507082218 | 40 | 118 | 0.9 | 1.7 | 0.00 | 0.02 | 0.02 | 86 | 1012.7 |
| 20260507081715 | 40 | 123 | 0.9 | 0.9 | 0.00 | 0.02 | 0.02 | 86 | 1012.6 |
| 20260507081211 | 40 | 140 | 0.9 | 0.9 | 0.00 | 0.02 | 0.02 | 86 | 1012.5 |
| 20260507080708 | 40 | 135 | 0.9 | 0.9 | 0.00 | 0.02 | 0.02 | 85 | 1012.4 |
| 20260507080204 | 41 | 167 | 0.0 | 0.0 | 0.00 | 0.02 | 0.02 | 85 | 1012.5 |
| 20260507075700 | 41 | 138 | 0.9 | 0.9 | 0.00 | 0.02 | 0.02 | 85 | 1012.6 |
| 20260507075156 | 41 | 137 | 0.9 | 0.9 | 0.00 | 0.02 | 0.02 | 84 | 1012.5 |
| 20260507074653 | 41 | 128 | 1.7 | 1.7 | 0.00 | 0.02 | 0.02 | 84 | 1012.4 |
| 20260507074151 | 41 | 259 | 1.7 | 1.7 | 0.00 | 0.02 | 0.02 | 85 | 1012.6 |
| 20260507073647 | 41 | 334 | 2.6 | 2.6 | 0.00 | 0.02 | 0.02 | 84 | 1012.6 |
| 20260507073143 | 41 | 173 | 0.9 | 0.9 | 0.00 | 0.02 | 0.02 | 85 | 1012.4 |
| 20260507072642 | 41 | 173 | 0.9 | 0.9 | 0.00 | 0.02 | 0.02 | 85 | 1012.2 |
| 20260507072138 | 41 | 152 | 0.0 | 0.9 | 0.00 | 0.02 | 0.02 | 84 | 1012.4 |
| 20260507071636 | 41 | 1 | 0.0 | 1.7 | 0.00 | 0.02 | 0.02 | 85 | 1012.6 |
| 20260507071132 | 41 | 0 | 1.7 | 1.7 | 0.00 | 0.02 | 0.02 | 85 | 1012.3 |
| 20260507070629 | 41 | 36 | 0.9 | 1.7 | 0.00 | 0.02 | 0.02 | 85 | 1012.3 |
| 20260507070126 | 41 | 174 | 0.0 | 0.9 | 0.00 | 0.02 | 0.02 | 85 | 1012.2 |
| 20260507065622 | 41 | 215 | 0.9 | 0.9 | 0.00 | 0.02 | 0.02 | 86 | 1012.3 |
| 20260507065120 | 41 | 206 | 0.9 | 0.9 | 0.00 | 0.02 | 0.02 | 86 | 1012.6 |
| 20260507064617 | 41 | 290 | 1.7 | 1.7 | 0.00 | 0.02 | 0.02 | 87 | 1012.6 |
| 20260507064116 | 41 | 193 | 1.7 | 2.6 | 0.00 | 0.02 | 0.02 | 88 | 1012.3 |
| 20260507063613 | 41 | 331 | 4.3 | 6.1 | 0.00 | 0.02 | 0.02 | 88 | 1012.3 |
| 20260507063110 | 41 | 215 | 1.7 | 1.7 | 0.00 | 0.02 | 0.02 | 89 | 1012.2 |
| 20260507062606 | 41 | 107 | 1.7 | 1.7 | 0.00 | 0.02 | 0.02 | 90 | 1012.3 |
| 20260507062104 | 41 | 311 | 4.3 | 6.1 | 0.00 | 0.02 | 0.02 | 92 | 1012.2 |
| 20260507061602 | 42 | 305 | 1.7 | 5.2 | 0.00 | 0.02 | 0.02 | 93 | 1011.9 |
| 20260507061100 | 42 | 323 | 3.5 | 4.3 | 0.00 | 0.02 | 0.02 | 93 | 1012.0 |
| 20260507060557 | 42 | 342 | 3.5 | 5.2 | 0.00 | 0.02 | 0.02 | 94 | 1012.1 |
| 20260507060054 | 43 | 280 | 2.6 | 4.3 | 0.00 | 0.02 | 0.02 | 94 | 1012.1 |
| 20260507055548 | 43 | 208 | 3.5 | 4.3 | 0.00 | 0.02 | 0.02 | 94 | 1012.0 |
| 20260507055045 | 43 | 272 | 2.6 | 2.6 | 0.00 | 0.02 | 0.02 | 95 | 1011.7 |
| 20260507054541 | 44 | 288 | 1.7 | 1.7 | 0.00 | 0.02 | 0.02 | 95 | 1011.5 |
| 20260507054038 | 44 | 335 | 2.6 | 2.6 | 0.00 | 0.02 | 0.02 | 95 | 1011.8 |
| 20260507053536 | 44 | 310 | 2.6 | 2.6 | 0.00 | 0.02 | 0.02 | 95 | 1012.1 |
| 20260507053035 | 44 | 216 | 0.9 | 1.7 | 0.00 | 0.02 | 0.02 | 95 | 1012.0 |
| 20260507052532 | 44 | 175 | 0.9 | 0.9 | 0.00 | 0.02 | 0.02 | 95 | 1012.1 |
| 20260507052029 | 44 | 185 | 0.9 | 0.9 | 0.00 | 0.02 | 0.02 | 95 | 1012.1 |
| 20260507051527 | 44 | 182 | 0.9 | 0.9 | 0.00 | 0.02 | 0.02 | 94 | 1012.0 |
| 20260507051023 | 44 | 176 | 0.0 | 0.0 | 0.00 | 0.02 | 0.02 | 94 | 1012.1 |
| 20260507050519 | 44 | 205 | 0.9 | 0.9 | 0.00 | 0.02 | 0.02 | 94 | 1012.1 |
| 20260507050016 | 44 | 169 | 0.0 | 0.0 | 0.00 | 0.02 | 0.02 | 94 | 1012.1 |
| 20260507045513 | 44 | 172 | 0.0 | 0.0 | 0.00 | 0.02 | 0.02 | 94 | 1012.1 |
| 20260507045010 | 44 | 178 | 0.0 | 0.0 | 0.00 | 0.02 | 0.02 | 94 | 1012.0 |
| 20260507044507 | 44 | 186 | 0.0 | 0.9 | 0.07 | 0.02 | 0.02 | 94 | 1012.2 |
| 20260507044003 | 44 | 168 | 0.0 | 0.0 | 0.07 | 0.02 | 0.02 | 94 | 1012.1 |
| 20260507043459 | 44 | 185 | 0.9 | 0.9 | 0.00 | 0.01 | 0.01 | 94 | 1012.3 |
| 20260507042956 | 44 | 152 | 0.0 | 0.0 | 0.05 | 0.01 | 0.01 | 94 | 1012.1 |
| 20260507042453 | 44 | 151 | 0.0 | 0.0 | 0.05 | 0.01 | 0.01 | 94 | 1011.8 |
| 20260507041948 | 44 | 146 | 0.0 | 0.9 | 0.00 | 0.00 | 0.00 | 94 | 1012.0 |
| 20260507041445 | 44 | 147 | 0.0 | 0.0 | 0.00 | 0.00 | 0.00 | 94 | 1011.8 |
| 20260507040942 | 44 | 147 | 0.0 | 0.0 | 0.00 | 0.00 | 0.00 | 94 | 1011.9 |
| 20260507040438 | 44 | 136 | 0.9 | 0.9 | 0.00 | 0.00 | 0.00 | 94 | 1011.6 |
| 20260507035934 | 44 | 159 | 0.0 | 0.0 | 0.07 | 0.45 | 0.45 | 94 | 1011.5 |
| 20260507035431 | 44 | 159 | 0.0 | 0.0 | 0.07 | 0.45 | 0.45 | 94 | 1011.5 |
| 20260507034928 | 44 | 159 | 0.0 | 0.0 | 0.00 | 0.44 | 0.44 | 94 | 1011.5 |
| 20260507034425 | 44 | 148 | 0.0 | 0.0 | 0.00 | 0.44 | 0.44 | 94 | 1011.2 |
| 20260507033923 | 44 | 141 | 0.9 | 0.9 | 0.00 | 0.44 | 0.44 | 94 | 1011.4 |
| 20260507033420 | 44 | 153 | 0.0 | 0.0 | 0.00 | 0.44 | 0.44 | 94 | 1011.6 |
| 20260507032917 | 44 | 154 | 0.0 | 0.9 | 0.00 | 0.44 | 0.44 | 93 | 1011.7 |
| 20260507032414 | 44 | 134 | 0.9 | 0.9 | 0.00 | 0.44 | 0.44 | 93 | 1011.7 |
| 20260507031910 | 44 | 137 | 0.9 | 0.9 | 0.00 | 0.44 | 0.44 | 93 | 1011.5 |
| 20260507031407 | 44 | 146 | 0.0 | 0.9 | 0.00 | 0.44 | 0.44 | 93 | 1011.9 |
| 20260507030903 | 44 | 130 | 0.9 | 1.7 | 0.00 | 0.44 | 0.44 | 93 | 1011.8 |
| 20260507030401 | 44 | 148 | 0.0 | 0.0 | 0.00 | 0.44 | 0.44 | 93 | 1011.9 |
| 20260507025857 | 44 | 151 | 0.0 | 0.0 | 0.00 | 0.44 | 0.44 | 93 | 1012.0 |
| 20260507025355 | 44 | 149 | 0.0 | 0.0 | 0.00 | 0.44 | 0.44 | 93 | 1011.8 |
| 20260507024853 | 44 | 139 | 0.9 | 0.9 | 0.00 | 0.44 | 0.44 | 93 | 1011.8 |
| 20260507024350 | 44 | 157 | 0.0 | 0.0 | 0.00 | 0.44 | 0.44 | 93 | 1012.0 |
| 20260507023845 | 44 | 154 | 0.0 | 0.0 | 0.00 | 0.44 | 0.44 | 93 | 1011.9 |
| 20260507023342 | 44 | 138 | 0.9 | 0.9 | 0.00 | 0.44 | 0.44 | 93 | 1011.8 |
| 20260507022840 | 43 | 142 | 0.0 | 0.0 | 0.00 | 0.44 | 0.44 | 93 | 1012.0 |
| 20260507022336 | 44 | 162 | 0.0 | 0.0 | 0.00 | 0.44 | 0.44 | 93 | 1011.9 |
| 20260507021832 | 44 | 137 | 0.0 | 0.0 | 0.00 | 0.44 | 0.44 | 93 | 1011.8 |
| 20260507021328 | 44 | 172 | 0.0 | 0.0 | 0.00 | 0.44 | 0.44 | 92 | 1012.2 |
| 20260507020826 | 44 | 173 | 0.0 | 0.0 | 0.00 | 0.44 | 0.44 | 92 | 1012.2 |
| 20260507020322 | 44 | 173 | 0.0 | 0.0 | 0.00 | 0.44 | 0.44 | 92 | 1012.0 |
| 20260507015819 | 44 | 172 | 0.0 | 0.0 | 0.00 | 0.44 | 0.44 | 92 | 1012.1 |
| 20260507015317 | 44 | 173 | 0.0 | 0.0 | 0.00 | 0.44 | 0.44 | 92 | 1012.3 |
| 20260507014814 | 44 | 173 | 0.0 | 0.0 | 0.00 | 0.44 | 0.44 | 92 | 1012.4 |
| 20260507014310 | 44 | 172 | 0.0 | 0.0 | 0.00 | 0.44 | 0.44 | 92 | 1012.1 |
| 20260507013807 | 44 | 151 | 0.0 | 0.0 | 0.00 | 0.44 | 0.44 | 92 | 1011.8 |
| 20260507013304 | 44 | 150 | 0.0 | 0.0 | 0.00 | 0.44 | 0.44 | 92 | 1011.9 |
| 20260507012802 | 44 | 144 | 0.0 | 0.9 | 0.00 | 0.44 | 0.44 | 92 | 1012.0 |
| 20260507012257 | 44 | 172 | 0.9 | 0.9 | 0.00 | 0.44 | 0.44 | 92 | 1012.4 |
| 20260507011755 | 44 | 221 | 1.7 | 1.7 | 0.00 | 0.44 | 0.44 | 92 | 1012.1 |
| 20260507011251 | 45 | 214 | 0.9 | 0.9 | 0.00 | 0.44 | 0.44 | 92 | 1012.1 |
| 20260507010750 | 44 | 193 | 0.9 | 0.9 | 0.00 | 0.44 | 0.44 | 92 | 1011.9 |
| 20260507010247 | 44 | 172 | 0.0 | 0.0 | 0.00 | 0.44 | 0.44 | 92 | 1011.8 |
| 20260507005744 | 44 | 170 | 0.9 | 0.9 | 0.00 | 0.44 | 0.44 | 92 | 1011.9 |
| 20260507005241 | 45 | 334 | 2.6 | 2.6 | 0.00 | 0.44 | 0.44 | 92 | 1011.9 |
| 20260507004737 | 45 | 205 | 0.9 | 1.7 | 0.00 | 0.44 | 0.44 | 92 | 1011.8 |
| 20260507004235 | 45 | 197 | 0.9 | 0.9 | 0.00 | 0.44 | 0.44 | 92 | 1011.9 |
| 20260507003731 | 45 | 194 | 0.9 | 0.9 | 0.00 | 0.44 | 0.44 | 92 | 1011.5 |
| 20260507003226 | 45 | 167 | 0.0 | 0.9 | 0.00 | 0.44 | 0.44 | 92 | 1011.4 |
| 20260507002723 | 45 | 158 | 0.0 | 0.0 | 0.00 | 0.44 | 0.44 | 92 | 1011.5 |
| 20260507002219 | 45 | 175 | 0.9 | 0.9 | 0.00 | 0.44 | 0.44 | 92 | 1011.6 |
| 20260507001715 | 45 | 230 | 0.9 | 1.7 | 0.00 | 0.44 | 0.44 | 92 | 1011.5 |
| 20260507001213 | 45 | 199 | 0.9 | 1.7 | 0.00 | 0.44 | 0.44 | 92 | 1011.3 |
| 20260507000709 | 45 | 289 | 1.7 | 1.7 | 0.00 | 0.44 | 0.44 | 92 | 1011.5 |
| 20260507000205 | 45 | 172 | 0.9 | 0.9 | 0.00 | 0.44 | 0.44 | 93 | 1011.5 |
| 20260506235702 | 45 | 178 | 0.9 | 0.9 | 0.00 | 0.44 | 0.44 | 93 | 1011.3 |
| 20260506235157 | 45 | 193 | 0.9 | 0.9 | 0.00 | 0.44 | 0.44 | 93 | 1011.1 |
| 20260506234655 | 45 | 188 | 0.0 | 0.9 | 0.00 | 0.44 | 0.44 | 93 | 1011.3 |
| 20260506234151 | 45 | 180 | 0.9 | 0.9 | 0.00 | 0.44 | 0.44 | 93 | 1010.9 |
| 20260506233649 | 45 | 174 | 0.9 | 0.9 | 0.00 | 0.44 | 0.44 | 93 | 1011.0 |
| 20260506233146 | 45 | 208 | 0.9 | 0.9 | 0.00 | 0.44 | 0.44 | 93 | 1011.1 |
| 20260506232642 | 45 | 293 | 2.6 | 2.6 | 0.00 | 0.44 | 0.44 | 93 | 1011.0 |
| 20260506232137 | 45 | 198 | 0.9 | 0.9 | 0.00 | 0.44 | 0.44 | 94 | 1010.8 |
| 20260506231635 | 45 | 167 | 0.0 | 0.0 | 0.00 | 0.44 | 0.44 | 94 | 1011.1 |
| 20260506231133 | 45 | 206 | 0.9 | 0.9 | 0.00 | 0.44 | 0.44 | 94 | 1011.1 |
| 20260506230630 | 45 | 172 | 0.0 | 0.0 | 0.00 | 0.44 | 0.44 | 94 | 1010.6 |
| 20260506230127 | 45 | 146 | 0.9 | 0.9 | 0.00 | 0.44 | 0.44 | 94 | 1010.9 |
| 20260506225623 | 45 | 173 | 0.0 | 0.9 | 0.00 | 0.44 | 0.44 | 95 | 1010.7 |
| 20260506225120 | 45 | 286 | 1.7 | 1.7 | 0.00 | 0.44 | 0.44 | 95 | 1010.6 |
| 20260506224616 | 45 | 246 | 1.7 | 1.7 | 0.00 | 0.44 | 0.44 | 95 | 1010.7 |
| 20260506224113 | 45 | 208 | 2.6 | 2.6 | 0.00 | 0.44 | 0.44 | 95 | 1010.4 |
| 20260506223609 | 45 | 271 | 2.6 | 4.3 | 0.00 | 0.44 | 0.44 | 95 | 1010.3 |
| 20260506223105 | 45 | 69 | 0.9 | 0.9 | 0.00 | 0.44 | 0.44 | 95 | 1010.6 |
| 20260506222602 | 45 | 306 | 3.5 | 4.3 | 0.00 | 0.44 | 0.44 | 95 | 1010.5 |
| 20260506222059 | 45 | 164 | 0.0 | 0.0 | 0.00 | 0.44 | 0.44 | 95 | 1010.6 |
| 20260506221556 | 45 | 289 | 1.7 | 1.7 | 0.00 | 0.44 | 0.44 | 95 | 1010.5 |
| 20260506221054 | 45 | 314 | 4.3 | 5.2 | 0.00 | 0.44 | 0.44 | 95 | 1010.5 |
| 20260506220550 | 45 | 287 | 3.5 | 4.3 | 0.00 | 0.44 | 0.44 | 95 | 1010.2 |
| 20260506220046 | 45 | 324 | 4.3 | 5.2 | 0.00 | 0.44 | 0.44 | 95 | 1010.4 |
| 20260506215543 | 45 | 256 | 2.6 | 4.3 | 0.00 | 0.44 | 0.44 | 95 | 1010.4 |
| 20260506215038 | 45 | 200 | 2.6 | 2.6 | 0.00 | 0.44 | 0.44 | 95 | 1010.4 |
| 20260506214535 | 46 | 295 | 5.2 | 7.8 | 0.00 | 0.44 | 0.44 | 95 | 1010.3 |
| 20260506214033 | 46 | 290 | 2.6 | 2.6 | 0.00 | 0.44 | 0.44 | 95 | 1010.3 |
| 20260506213531 | 46 | 285 | 1.7 | 2.6 | 0.00 | 0.44 | 0.44 | 95 | 1010.0 |
| 20260506213028 | 46 | 145 | 0.9 | 1.7 | 0.00 | 0.44 | 0.44 | 95 | 1010.2 |
| 20260506212524 | 46 | 303 | 3.5 | 4.3 | 0.00 | 0.44 | 0.44 | 95 | 1010.1 |
| 20260506212019 | 46 | 158 | 2.6 | 2.6 | 0.00 | 0.44 | 0.44 | 95 | 1009.7 |
| 20260506211515 | 46 | 270 | 1.7 | 4.3 | 0.00 | 0.44 | 0.44 | 95 | 1009.5 |
| 20260506211013 | 46 | 315 | 2.6 | 5.2 | 0.00 | 0.44 | 0.44 | 95 | 1009.7 |
| 20260506210509 | 46 | 303 | 5.2 | 7.0 | 0.00 | 0.44 | 0.44 | 95 | 1009.6 |
| 20260506210006 | 46 | 337 | 2.6 | 4.3 | 0.00 | 0.44 | 0.44 | 95 | 1009.5 |
| 20260506205502 | 47 | 287 | 4.3 | 6.1 | 0.00 | 0.44 | 0.44 | 95 | 1009.2 |
| 20260506204958 | 47 | 173 | 0.0 | 0.0 | 0.00 | 0.44 | 0.44 | 95 | 1009.4 |
| 20260506204456 | 47 | 228 | 2.6 | 4.3 | 0.00 | 0.44 | 0.44 | 95 | 1009.1 |
| 20260506203953 | 47 | 149 | 0.9 | 0.9 | 0.00 | 0.44 | 0.44 | 95 | 1009.1 |
| 20260506203451 | 47 | 308 | 2.6 | 2.6 | 0.05 | 0.44 | 0.44 | 95 | 1009.3 |
| 20260506202947 | 47 | 232 | 2.6 | 2.6 | 0.05 | 0.44 | 0.44 | 95 | 1009.1 |
| 20260506202444 | 47 | 300 | 4.3 | 6.1 | 0.00 | 0.43 | 0.43 | 95 | 1008.8 |
| 20260506201941 | 47 | 262 | 1.7 | 2.6 | 0.00 | 0.43 | 0.43 | 95 | 1008.8 |
| 20260506201438 | 47 | 132 | 4.3 | 5.2 | 0.00 | 0.43 | 0.43 | 95 | 1008.5 |
| 20260506200935 | 47 | 311 | 2.6 | 4.3 | 0.07 | 0.43 | 0.43 | 95 | 1008.5 |
| 20260506200431 | 47 | 312 | 2.6 | 2.6 | 0.07 | 0.43 | 0.43 | 95 | 1008.7 |
| 20260506195928 | 47 | 121 | 1.7 | 2.6 | 0.00 | 0.42 | 0.42 | 95 | 1008.5 |
| 20260506195425 | 47 | 228 | 0.9 | 0.9 | 0.00 | 0.42 | 0.42 | 95 | 1008.4 |
| 20260506194921 | 48 | 275 | 1.7 | 2.6 | 0.05 | 0.42 | 0.42 | 95 | 1008.7 |
| 20260506194419 | 48 | 169 | 0.9 | 0.9 | 0.05 | 0.42 | 0.42 | 95 | 1008.6 |
| 20260506193915 | 48 | 66 | 2.6 | 2.6 | 0.00 | 0.41 | 0.41 | 95 | 1008.7 |
| 20260506193412 | 48 | 170 | 0.9 | 1.7 | 0.07 | 0.41 | 0.41 | 95 | 1008.8 |
| 20260506192909 | 48 | 210 | 0.9 | 0.9 | 0.07 | 0.41 | 0.41 | 95 | 1008.5 |
| 20260506192406 | 47 | 188 | 1.7 | 1.7 | 0.05 | 0.40 | 0.40 | 95 | 1008.2 |
| 20260506191903 | 47 | 307 | 3.5 | 4.3 | 0.05 | 0.40 | 0.40 | 95 | 1008.3 |
| 20260506191359 | 48 | 174 | 0.0 | 0.9 | 0.07 | 0.39 | 0.39 | 95 | 1008.4 |
| 20260506190856 | 47 | 316 | 4.3 | 6.1 | 0.07 | 0.39 | 0.39 | 95 | 1008.3 |
| 20260506190353 | 48 | 217 | 2.6 | 4.3 | 0.00 | 0.38 | 0.38 | 95 | 1008.1 |
| 20260506185849 | 48 | 226 | 2.6 | 2.6 | 0.00 | 0.38 | 0.38 | 95 | 1008.0 |
| 20260506185347 | 48 | 148 | 0.9 | 0.9 | 0.00 | 0.38 | 0.38 | 95 | 1007.9 |
| 20260506184843 | 48 | 340 | 2.6 | 2.6 | 0.00 | 0.38 | 0.38 | 95 | 1008.0 |
| 20260506184340 | 48 | 252 | 1.7 | 2.6 | 0.00 | 0.38 | 0.38 | 95 | 1008.0 |
| 20260506183838 | 47 | 297 | 2.6 | 2.6 | 0.00 | 0.38 | 0.38 | 95 | 1007.9 |
| 20260506183333 | 47 | 257 | 6.1 | 7.0 | 0.00 | 0.38 | 0.38 | 95 | 1007.8 |
| 20260506182831 | 47 | 245 | 3.5 | 5.2 | 0.00 | 0.38 | 0.38 | 95 | 1007.9 |
| 20260506182327 | 47 | 217 | 1.7 | 2.6 | 0.00 | 0.38 | 0.38 | 95 | 1007.7 |
| 20260506181825 | 47 | 207 | 0.9 | 1.7 | 0.00 | 0.38 | 0.38 | 95 | 1007.8 |
| 20260506181323 | 47 | 151 | 0.9 | 1.7 | 0.00 | 0.38 | 0.38 | 95 | 1007.7 |
| 20260506180820 | 47 | 278 | 2.6 | 2.6 | 0.00 | 0.38 | 0.38 | 95 | 1007.7 |
| 20260506180316 | 47 | 304 | 2.6 | 4.3 | 0.00 | 0.38 | 0.38 | 95 | 1007.8 |
| 20260506175812 | 48 | 282 | 1.7 | 1.7 | 0.00 | 0.38 | 0.38 | 95 | 1007.7 |
| 20260506175309 | 48 | 215 | 0.9 | 0.9 | 0.00 | 0.38 | 0.38 | 95 | 1007.6 |
| 20260506174807 | 48 | 277 | 2.6 | 4.3 | 0.00 | 0.38 | 0.38 | 95 | 1007.5 |
| 20260506174304 | 48 | 103 | 0.9 | 0.9 | 0.00 | 0.38 | 0.38 | 95 | 1007.3 |
| 20260506173801 | 48 | 257 | 2.6 | 2.6 | 0.00 | 0.38 | 0.38 | 95 | 1007.5 |
| 20260506173258 | 48 | 222 | 1.7 | 1.7 | 0.00 | 0.38 | 0.38 | 95 | 1007.2 |
| 20260506172754 | 48 | 277 | 2.6 | 2.6 | 0.00 | 0.38 | 0.38 | 95 | 1007.4 |
| 20260506172251 | 48 | 169 | 0.0 | 0.9 | 0.05 | 0.38 | 0.38 | 95 | 1007.3 |
| 20260506171749 | 48 | 261 | 2.6 | 2.6 | 0.05 | 0.38 | 0.38 | 95 | 1007.2 |
| 20260506171246 | 48 | 235 | 1.7 | 2.6 | 0.00 | 0.37 | 0.37 | 95 | 1007.0 |
| 20260506170744 | 49 | 290 | 2.6 | 2.6 | 0.00 | 0.37 | 0.37 | 95 | 1007.2 |
| 20260506170240 | 48 | 166 | 0.0 | 0.0 | 0.00 | 0.37 | 0.37 | 95 | 1007.4 |
| 20260506165738 | 49 | 331 | 5.2 | 7.0 | 0.00 | 0.37 | 0.37 | 95 | 1007.1 |
| 20260506165235 | 49 | 344 | 2.6 | 2.6 | 0.00 | 0.37 | 0.37 | 95 | 1007.1 |
| 20260506164732 | 49 | 4 | 2.6 | 4.3 | 0.00 | 0.37 | 0.37 | 95 | 1007.1 |
| 20260506164229 | 50 | 337 | 4.3 | 5.2 | 0.00 | 0.37 | 0.37 | 95 | 1006.8 |
| 20260506163726 | 50 | 311 | 1.7 | 1.7 | 0.00 | 0.37 | 0.37 | 95 | 1006.9 |
| 20260506163220 | 50 | 342 | 1.7 | 1.7 | 0.00 | 0.37 | 0.37 | 95 | 1007.0 |
| 20260506162717 | 51 | 324 | 4.3 | 5.2 | 0.00 | 0.37 | 0.37 | 95 | 1007.1 |
| 20260506162214 | 52 | 210 | 1.7 | 2.6 | 0.00 | 0.37 | 0.37 | 95 | 1006.9 |
| 20260506161706 | 53 | 341 | 2.6 | 4.3 | 0.00 | 0.37 | 0.37 | 95 | 1006.6 |
| 20260506161203 | 55 | 273 | 3.5 | 5.2 | 0.00 | 0.37 | 0.37 | 95 | 1006.7 |
| 20260506160700 | 56 | 170 | 0.0 | 0.9 | 0.00 | 0.37 | 0.37 | 95 | 1006.4 |
| 20260506160157 | 56 | 172 | 0.0 | 0.0 | 0.00 | 0.37 | 0.37 | 95 | 1006.6 |
| 20260506155655 | 56 | 197 | 0.9 | 1.7 | 0.00 | 0.37 | 0.37 | 95 | 1006.7 |
| 20260506155152 | 57 | 152 | 0.0 | 0.0 | 0.00 | 0.37 | 0.37 | 95 | 1006.4 |
| 20260506153254 | 56 | 179 | 0.9 | 0.9 | 0.00 | 0.36 | 0.36 | 95 | 1006.8 |
| 20260506152751 | 56 | 156 | 0.0 | 0.0 | 0.00 | 0.36 | 0.36 | 95 | 1006.8 |
| 20260506152249 | 56 | 146 | 2.6 | 2.6 | 0.00 | 0.36 | 0.36 | 95 | 1006.8 |
| 20260506151747 | 56 | 123 | 1.7 | 1.7 | 0.00 | 0.36 | 0.36 | 95 | 1006.8 |
| 20260506151244 | 56 | 121 | 0.9 | 0.9 | 0.07 | 0.36 | 0.36 | 95 | 1007.0 |
| 20260506150740 | 56 | 143 | 0.9 | 1.7 | 0.07 | 0.36 | 0.36 | 95 | 1006.7 |
| 20260506150238 | 56 | 126 | 2.6 | 2.6 | 0.00 | 0.35 | 0.35 | 95 | 1006.8 |
| 20260506145734 | 56 | 120 | 1.7 | 2.6 | 0.00 | 0.35 | 0.35 | 95 | 1006.8 |
| 20260506145230 | 56 | 164 | 3.5 | 4.3 | 0.00 | 0.35 | 0.35 | 95 | 1006.6 |
| 20260506144728 | 56 | 122 | 2.6 | 2.6 | 0.00 | 0.35 | 0.35 | 95 | 1006.6 |
| 20260506144225 | 56 | 122 | 2.6 | 2.6 | 0.00 | 0.35 | 0.35 | 95 | 1006.4 |
| 20260506143722 | 56 | 139 | 0.9 | 0.9 | 0.00 | 0.35 | 0.35 | 95 | 1006.4 |
| 20260506143220 | 56 | 123 | 2.6 | 4.3 | 0.00 | 0.35 | 0.35 | 95 | 1006.7 |
| 20260506142719 | 56 | 127 | 0.0 | 0.9 | 0.00 | 0.35 | 0.35 | 95 | 1006.6 |
| 20260506142216 | 55 | 120 | 4.3 | 5.2 | 0.05 | 0.35 | 0.35 | 95 | 1006.6 |
| 20260506141714 | 56 | 102 | 2.6 | 2.6 | 0.05 | 0.35 | 0.35 | 95 | 1006.7 |
| 20260506141212 | 55 | 133 | 2.6 | 4.3 | 0.00 | 0.34 | 0.34 | 95 | 1006.8 |
| 20260506140709 | 55 | 120 | 2.6 | 2.6 | 0.00 | 0.34 | 0.34 | 95 | 1006.4 |
| 20260506140206 | 55 | 119 | 0.9 | 1.7 | 0.07 | 0.34 | 0.34 | 95 | 1006.8 |
| 20260506135703 | 55 | 129 | 1.7 | 1.7 | 0.07 | 0.34 | 0.34 | 95 | 1007.0 |
| 20260506135159 | 55 | 143 | 1.7 | 1.7 | 0.00 | 0.33 | 0.33 | 95 | 1006.9 |
| 20260506134656 | 54 | 146 | 0.0 | 0.9 | 0.05 | 0.33 | 0.33 | 95 | 1007.0 |
| 20260506134152 | 54 | 120 | 2.6 | 2.6 | 0.12 | 0.33 | 0.33 | 95 | 1007.0 |
| 20260506133649 | 53 | 136 | 1.7 | 2.6 | 0.12 | 0.32 | 0.32 | 95 | 1007.1 |
| 20260506133146 | 53 | 147 | 2.6 | 2.6 | 0.12 | 0.31 | 0.31 | 95 | 1007.4 |
| 20260506132643 | 52 | 139 | 0.9 | 1.7 | 0.12 | 0.30 | 0.30 | 95 | 1007.2 |
| 20260506132140 | 52 | 111 | 1.7 | 1.7 | 0.17 | 0.29 | 0.29 | 95 | 1007.3 |
| 20260506131638 | 53 | 173 | 0.9 | 1.7 | 0.19 | 0.28 | 0.28 | 95 | 1007.2 |
| 20260506131134 | 53 | 132 | 1.7 | 2.6 | 0.12 | 0.26 | 0.26 | 95 | 1007.5 |
| 20260506130631 | 52 | 97 | 0.9 | 0.9 | 0.19 | 0.25 | 0.25 | 95 | 1007.6 |
| 20260506130128 | 51 | 133 | 0.9 | 2.6 | 0.26 | 0.24 | 0.24 | 95 | 1007.5 |
| 20260506125626 | 50 | 137 | 0.0 | 0.0 | 0.17 | 0.22 | 0.22 | 95 | 1007.8 |
| 20260506125124 | 50 | 159 | 0.0 | 0.0 | 0.17 | 0.20 | 0.20 | 95 | 1008.0 |
| 20260506124621 | 50 | 159 | 0.0 | 0.0 | 0.19 | 0.19 | 0.19 | 95 | 1007.5 |
| 20260506124119 | 50 | 163 | 0.9 | 0.9 | 0.12 | 0.17 | 0.17 | 95 | 1007.3 |
| 20260506123616 | 50 | 142 | 0.9 | 1.7 | 0.12 | 0.16 | 0.16 | 95 | 1007.4 |
| 20260506123115 | 50 | 161 | 0.0 | 0.0 | 0.12 | 0.15 | 0.15 | 95 | 1007.3 |
| 20260506122611 | 50 | 169 | 0.0 | 0.0 | 0.05 | 0.14 | 0.14 | 95 | 1007.4 |
| 20260506122109 | 50 | 162 | 0.0 | 0.0 | 0.00 | 0.13 | 0.13 | 95 | 1007.1 |
| 20260506121607 | 50 | 162 | 0.9 | 0.9 | 0.07 | 0.13 | 0.13 | 95 | 1006.9 |
| 20260506121103 | 49 | 150 | 0.9 | 0.9 | 0.07 | 0.13 | 0.13 | 95 | 1007.2 |
| 20260506120601 | 49 | 135 | 0.9 | 0.9 | 0.00 | 0.12 | 0.12 | 95 | 1007.2 |
| 20260506120058 | 49 | 135 | 1.7 | 1.7 | 0.00 | 0.12 | 0.12 | 95 | 1007.3 |
| 20260506115556 | 49 | 143 | 2.6 | 2.6 | 0.05 | 0.12 | 0.12 | 95 | 1007.4 |
| 20260506115054 | 49 | 118 | 2.6 | 2.6 | 0.05 | 0.12 | 0.12 | 95 | 1007.3 |
| 20260506114551 | 49 | 168 | 0.9 | 0.9 | 0.07 | 0.11 | 0.11 | 94 | 1007.7 |
| 20260506114049 | 49 | 149 | 0.9 | 0.9 | 0.14 | 0.11 | 0.11 | 94 | 1007.7 |
| 20260506113547 | 49 | 173 | 0.0 | 0.0 | 0.19 | 0.10 | 0.10 | 94 | 1007.9 |
| 20260506113044 | 49 | 146 | 0.0 | 0.0 | 0.12 | 0.08 | 0.08 | 94 | 1007.7 |
| 20260506112540 | 49 | 147 | 0.0 | 0.0 | 0.12 | 0.07 | 0.07 | 94 | 1007.9 |
| 20260506112038 | 49 | 147 | 0.0 | 0.0 | 0.07 | 0.06 | 0.06 | 94 | 1008.1 |
| 20260506111536 | 49 | 147 | 0.0 | 0.0 | 0.00 | 0.05 | 0.05 | 94 | 1008.0 |
| 20260506111033 | 49 | 147 | 0.0 | 0.0 | 0.00 | 0.05 | 0.05 | 94 | 1008.1 |
| 20260506110530 | 49 | 147 | 0.0 | 0.0 | 0.00 | 0.05 | 0.05 | 94 | 1008.1 |
| 20260506110027 | 49 | 146 | 0.0 | 0.0 | 0.05 | 0.05 | 0.05 | 94 | 1008.1 |
| 20260506105523 | 49 | 145 | 0.0 | 0.0 | 0.05 | 0.05 | 0.05 | 94 | 1008.3 |
| 20260506105021 | 49 | 144 | 0.0 | 0.0 | 0.00 | 0.04 | 0.04 | 94 | 1008.0 |
| 20260506104519 | 49 | 160 | 0.0 | 0.0 | 0.00 | 0.04 | 0.04 | 94 | 1007.8 |
| 20260506104016 | 49 | 171 | 0.0 | 0.0 | 0.07 | 0.04 | 0.04 | 94 | 1007.9 |
| 20260506103513 | 49 | 177 | 0.0 | 0.0 | 0.07 | 0.04 | 0.04 | 93 | 1008.1 |
| 20260506103010 | 49 | 178 | 0.0 | 0.0 | 0.00 | 0.03 | 0.03 | 93 | 1007.9 |
| 20260506102509 | 49 | 187 | 0.9 | 0.9 | 0.00 | 0.03 | 0.03 | 93 | 1008.0 |
| 20260506102005 | 49 | 173 | 0.0 | 0.0 | 0.00 | 0.03 | 0.03 | 93 | 1007.9 |
| 20260506101502 | 49 | 197 | 0.9 | 0.9 | 0.00 | 0.03 | 0.03 | 93 | 1007.5 |
| 20260506100959 | 49 | 96 | 0.9 | 1.7 | 0.05 | 0.03 | 0.03 | 93 | 1007.5 |
| 20260506100457 | 49 | 209 | 0.9 | 1.7 | 0.05 | 0.03 | 0.03 | 93 | 1007.7 |
| 20260506095955 | 49 | 338 | 2.6 | 2.6 | 0.00 | 0.02 | 0.02 | 93 | 1007.7 |
| 20260506095454 | 49 | 134 | 0.0 | 0.9 | 0.00 | 0.02 | 0.02 | 93 | 1007.7 |
| 20260506094949 | 49 | 183 | 0.0 | 0.9 | 0.00 | 0.02 | 0.02 | 93 | 1007.6 |
| 20260506094448 | 49 | 152 | 0.9 | 0.9 | 0.00 | 0.02 | 0.02 | 93 | 1007.5 |